Time,TemperatureF,DewpointF,PressureIn,WindDirection,WindDirectionDegrees,WindSpeedMPH,WindSpeedGustMPH,Humidity,HourlyPrecipIn,Conditions,Clouds,dailyrainin,SoftwareType,DateUTC
2013-07-10 00:05:00,77.1,74.0,30.09,NNE,16,0.0,0.0,90,0.00,,,0.02,weatherlink.com 1.10,2013-07-10 04:05:00,
2013-07-10 00:21:00,76.9,74.0,30.10,NNE,16,0.0,0.0,90,0.00,,,0.00,weatherlink.com 1.10,2013-07-10 04:21:00,
2013-07-10 00:36:00,76.9,74.0,30.10,NNE,16,0.0,0.0,91,0.00,,,0.00,weatherlink.com 1.10,2013-07-10 04:36:00,
2013-07-10 00:51:00,77.0,74.0,30.09,NNE,16,0.0,0.0,91,0.00,,,0.00,weatherlink.com 1.10,2013-07-10 04:51:00,
2013-07-10 01:06:00,76.8,74.0,30.09,NNE,16,0.0,0.0,91,0.00,,,0.00,weatherlink.com 1.10,2013-07-10 05:06:00,
2013-07-10 01:21:00,76.6,74.0,30.08,NNE,16,0.0,0.0,92,0.00,,,0.00,weatherlink.com 1.10,2013-07-10 05:21:00,
2013-07-10 01:36:00,76.4,74.0,30.08,NNE,16,0.0,0.0,92,0.00,,,0.00,weatherlink.com 1.10,2013-07-10 05:36:00,
2013-07-10 01:51:00,76.4,74.0,30.08,NNE,16,0.0,0.0,92,0.00,,,0.00,weatherlink.com 1.10,2013-07-10 05:51:00,
2013-07-10 02:06:00,76.2,74.0,30.08,NNE,16,0.0,0.0,92,0.00,,,0.00,weatherlink.com 1.10,2013-07-10 06:06:00,
2013-07-10 02:21:00,76.1,74.0,30.08,NNE,16,0.0,0.0,92,0.00,,,0.00,weatherlink.com 1.10,2013-07-10 06:21:00,
2013-07-10 02:36:00,75.9,74.0,30.07,NNE,16,0.0,0.0,92,0.00,,,0.00,weatherlink.com 1.10,2013-07-10 06:36:00,
2013-07-10 02:51:00,75.8,73.0,30.07,NNE,16,0.0,0.0,92,0.00,,,0.00,weatherlink.com 1.10,2013-07-10 06:51:00,
2013-07-10 03:06:00,75.6,74.0,30.07,NNE,16,0.0,0.0,93,0.00,,,0.00,weatherlink.com 1.10,2013-07-10 07:06:00,
2013-07-10 03:21:00,75.7,74.0,30.07,NNE,16,0.0,0.0,93,0.00,,,0.00,weatherlink.com 1.10,2013-07-10 07:21:00,
2013-07-10 03:36:00,75.5,73.0,30.06,NNE,16,0.0,0.0,93,0.00,,,0.00,weatherlink.com 1.10,2013-07-10 07:36:00,
2013-07-10 03:51:00,75.4,73.0,30.06,NNE,16,0.0,0.0,93,0.00,,,0.00,weatherlink.com 1.10,2013-07-10 07:51:00,
2013-07-10 04:06:00,75.1,73.0,30.06,NNE,16,0.0,0.0,93,0.00,,,0.00,weatherlink.com 1.10,2013-07-10 08:06:00,
2013-07-10 04:21:00,75.0,73.0,30.06,NNE,16,0.0,0.0,93,0.00,,,0.00,weatherlink.com 1.10,2013-07-10 08:21:00,
2013-07-10 04:36:00,75.1,73.0,30.06,NNE,16,2.0,3.0,93,0.00,,,0.00,weatherlink.com 1.10,2013-07-10 08:36:00,
2013-07-10 04:51:00,75.0,73.0,30.06,NNE,16,2.0,3.0,93,0.00,,,0.00,weatherlink.com 1.10,2013-07-10 08:51:00,
2013-07-10 05:06:00,74.8,73.0,30.06,NNE,16,4.0,4.0,93,0.00,,,0.00,weatherlink.com 1.10,2013-07-10 09:06:00,
2013-07-10 05:21:00,74.7,73.0,30.06,NNE,16,0.0,2.0,93,0.00,,,0.00,weatherlink.com 1.10,2013-07-10 09:21:00,
2013-07-10 05:36:00,74.7,73.0,30.06,NNE,16,0.0,2.0,93,0.00,,,0.00,weatherlink.com 1.10,2013-07-10 09:36:00,
2013-07-10 05:51:00,74.6,73.0,30.06,NNE,16,0.0,0.0,93,0.00,,,0.00,weatherlink.com 1.10,2013-07-10 09:51:00,
2013-07-10 06:06:00,74.3,72.0,30.06,NNE,16,2.0,3.0,93,0.00,,,0.00,weatherlink.com 1.10,2013-07-10 10:06:00,
2013-07-10 06:21:00,74.4,73.0,30.06,NNE,16,2.0,4.0,94,0.00,,,0.00,weatherlink.com 1.10,2013-07-10 10:21:00,
2013-07-10 06:36:00,74.5,73.0,30.06,NNE,16,3.0,3.0,94,0.00,,,0.00,weatherlink.com 1.10,2013-07-10 10:36:00,
2013-07-10 06:51:00,74.5,73.0,30.06,NNE,16,1.0,4.0,94,0.00,,,0.00,weatherlink.com 1.10,2013-07-10 10:51:00,
2013-07-10 07:06:00,74.6,73.0,30.06,NNE,16,2.0,3.0,94,0.00,,,0.00,weatherlink.com 1.10,2013-07-10 11:06:00,
2013-07-10 07:21:00,74.9,73.0,30.06,NNE,16,1.0,3.0,94,0.00,,,0.00,weatherlink.com 1.10,2013-07-10 11:21:00,
2013-07-10 07:36:00,75.1,73.0,30.06,NNE,16,2.0,3.0,94,0.00,,,0.00,weatherlink.com 1.10,2013-07-10 11:36:00,
2013-07-10 07:51:00,75.6,74.0,30.07,NNE,16,0.0,5.0,94,0.00,,,0.00,weatherlink.com 1.10,2013-07-10 11:51:00,
2013-07-10 08:06:00,76.0,74.0,30.07,NNE,16,3.0,4.0,94,0.00,,,0.00,weatherlink.com 1.10,2013-07-10 12:06:00,
2013-07-10 08:21:00,76.5,75.0,30.07,NNE,16,4.0,6.0,94,0.00,,,0.00,weatherlink.com 1.10,2013-07-10 12:21:00,
2013-07-10 08:36:00,77.1,75.0,30.08,NNE,25,1.0,6.0,93,0.00,,,0.00,weatherlink.com 1.10,2013-07-10 12:36:00,
2013-07-10 08:51:00,77.7,75.0,30.08,ENE,58,5.0,7.0,92,0.00,,,0.00,weatherlink.com 1.10,2013-07-10 12:51:00,
2013-07-10 09:06:00,77.9,75.0,30.08,ESE,112,0.0,5.0,91,0.00,,,0.00,weatherlink.com 1.10,2013-07-10 13:06:00,
2013-07-10 09:21:00,78.7,76.0,30.08,ENE,77,1.0,7.0,90,0.00,,,0.00,weatherlink.com 1.10,2013-07-10 13:21:00,
2013-07-10 09:36:00,79.4,76.0,30.08,ENE,76,4.0,6.0,88,0.00,,,0.00,weatherlink.com 1.10,2013-07-10 13:36:00,
2013-07-10 09:51:00,80.1,76.0,30.08,East,80,1.0,6.0,86,0.00,,,0.00,weatherlink.com 1.10,2013-07-10 13:51:00,
2013-07-10 10:06:00,80.9,76.0,30.09,East,89,5.0,7.0,84,0.00,,,0.00,weatherlink.com 1.10,2013-07-10 14:06:00,
2013-07-10 10:21:00,82.0,76.0,30.09,ENE,60,2.0,7.0,83,0.00,,,0.00,weatherlink.com 1.10,2013-07-10 14:21:00,
2013-07-10 10:36:00,82.6,76.0,30.09,ENE,61,1.0,6.0,79,0.00,,,0.00,weatherlink.com 1.10,2013-07-10 14:36:00,
2013-07-10 10:51:00,82.6,75.0,30.09,North,353,2.0,4.0,78,0.00,,,0.00,weatherlink.com 1.10,2013-07-10 14:51:00,
2013-07-10 11:22:00,84.2,75.0,30.07,East,93,3.0,6.0,74,0.00,,,0.00,weatherlink.com 1.10,2013-07-10 15:22:00,
2013-07-10 11:37:00,84.5,76.0,30.08,ESE,116,1.0,5.0,75,0.00,,,0.00,weatherlink.com 1.10,2013-07-10 15:37:00,
2013-07-10 11:52:00,84.6,76.0,30.08,WSW,237,4.0,7.0,74,0.00,,,0.00,weatherlink.com 1.10,2013-07-10 15:52:00,
2013-07-10 12:07:00,83.4,75.0,30.08,WSW,258,2.0,8.0,76,0.00,,,0.00,weatherlink.com 1.10,2013-07-10 16:07:00,
2013-07-10 12:22:00,83.0,75.0,30.08,WSW,257,2.0,8.0,76,0.00,,,0.00,weatherlink.com 1.10,2013-07-10 16:22:00,
2013-07-10 12:37:00,83.0,75.0,30.08,SSW,198,3.0,7.0,76,0.00,,,0.00,weatherlink.com 1.10,2013-07-10 16:37:00,
2013-07-10 12:52:00,83.5,75.0,30.07,WNW,284,10.0,15.0,75,0.00,,,0.00,weatherlink.com 1.10,2013-07-10 16:52:00,
2013-07-10 13:07:00,84.0,75.0,30.07,West,272,13.0,15.0,75,0.00,,,0.00,weatherlink.com 1.10,2013-07-10 17:07:00,
2013-07-10 13:22:00,84.1,75.0,30.06,WSW,243,10.0,19.0,73,0.00,,,0.00,weatherlink.com 1.10,2013-07-10 17:22:00,
2013-07-10 13:37:00,83.6,74.0,30.06,WSW,257,7.0,14.0,73,0.00,,,0.00,weatherlink.com 1.10,2013-07-10 17:37:00,
2013-07-10 13:52:00,84.1,75.0,30.06,WNW,301,1.0,14.0,74,0.00,,,0.00,weatherlink.com 1.10,2013-07-10 17:52:00,
2013-07-10 14:07:00,84.1,75.0,30.05,NW,304,4.0,11.0,75,0.00,,,0.00,weatherlink.com 1.10,2013-07-10 18:07:00,
2013-07-10 14:22:00,84.1,76.0,30.05,WNW,285,4.0,13.0,76,0.00,,,0.00,weatherlink.com 1.10,2013-07-10 18:22:00,
2013-07-10 14:37:00,84.5,76.0,30.04,NNW,327,4.0,11.0,75,0.00,,,0.00,weatherlink.com 1.10,2013-07-10 18:37:00,
2013-07-10 14:52:00,85.0,76.0,30.04,West,274,11.0,14.0,74,0.00,,,0.00,weatherlink.com 1.10,2013-07-10 18:52:00,
2013-07-10 15:07:00,84.8,75.0,30.03,WSW,249,9.0,15.0,73,0.00,,,0.00,weatherlink.com 1.10,2013-07-10 19:07:00,
2013-07-10 15:22:00,84.6,76.0,30.03,West,267,7.0,15.0,76,0.00,,,0.00,weatherlink.com 1.10,2013-07-10 19:22:00,
2013-07-10 15:37:00,84.4,77.0,30.03,WSW,253,7.0,11.0,77,0.00,,,0.00,weatherlink.com 1.10,2013-07-10 19:37:00,
2013-07-10 15:52:00,84.6,77.0,30.02,West,265,8.0,11.0,77,0.00,,,0.00,weatherlink.com 1.10,2013-07-10 19:52:00,
2013-07-10 16:07:00,85.1,77.0,30.02,WSW,258,4.0,13.0,77,0.00,,,0.00,weatherlink.com 1.10,2013-07-10 20:07:00,
2013-07-10 16:22:00,84.8,77.0,30.02,West,275,14.0,14.0,76,0.00,,,0.00,weatherlink.com 1.10,2013-07-10 20:22:00,
2013-07-10 16:37:00,84.2,76.0,30.01,WSW,239,7.0,10.0,77,0.00,,,0.00,weatherlink.com 1.10,2013-07-10 20:37:00,
2013-07-10 16:52:00,83.6,76.0,30.01,WNW,286,5.0,9.0,77,0.00,,,0.00,weatherlink.com 1.10,2013-07-10 20:52:00,
2013-07-10 17:07:00,83.6,76.0,30.01,ENE,78,5.0,9.0,78,0.00,,,0.00,weatherlink.com 1.10,2013-07-10 21:07:00,
2013-07-10 17:22:00,82.2,75.0,30.02,East,85,4.0,10.0,78,0.00,,,0.00,weatherlink.com 1.10,2013-07-10 21:22:00,
2013-07-10 17:37:00,81.2,75.0,30.02,ENE,70,4.0,9.0,82,0.00,,,0.00,weatherlink.com 1.10,2013-07-10 21:37:00,
2013-07-10 17:52:00,81.0,75.0,30.01,ENE,62,5.0,6.0,83,0.00,,,0.00,weatherlink.com 1.10,2013-07-10 21:52:00,
2013-07-10 18:07:00,80.3,75.0,30.01,ESE,108,2.0,8.0,83,0.00,,,0.00,weatherlink.com 1.10,2013-07-10 22:07:00,
2013-07-10 18:22:00,79.5,75.0,30.01,ENE,66,3.0,8.0,85,0.00,,,0.00,weatherlink.com 1.10,2013-07-10 22:22:00,
2013-07-10 18:37:00,78.9,74.0,30.01,ENE,66,1.0,5.0,86,0.00,,,0.00,weatherlink.com 1.10,2013-07-10 22:37:00,
2013-07-10 18:52:00,78.9,75.0,30.01,ENE,66,0.0,6.0,87,0.00,,,0.00,weatherlink.com 1.10,2013-07-10 22:52:00,
2013-07-10 19:07:00,78.8,75.0,30.01,ENE,68,1.0,6.0,87,0.00,,,0.00,weatherlink.com 1.10,2013-07-10 23:07:00,
2013-07-10 19:22:00,78.8,75.0,30.01,ENE,68,1.0,5.0,87,0.00,,,0.00,weatherlink.com 1.10,2013-07-10 23:22:00,
2013-07-10 19:37:00,78.7,75.0,30.01,ENE,68,1.0,4.0,87,0.00,,,0.00,weatherlink.com 1.10,2013-07-10 23:37:00,
2013-07-10 19:52:00,78.8,75.0,30.01,ENE,70,0.0,4.0,87,0.00,,,0.00,weatherlink.com 1.10,2013-07-10 23:52:00,
2013-07-10 20:07:00,78.8,75.0,30.01,ENE,70,2.0,2.0,88,0.00,,,0.00,weatherlink.com 1.10,2013-07-11 00:07:00,
2013-07-10 20:22:00,78.8,75.0,30.01,ENE,70,0.0,1.0,88,0.00,,,0.00,weatherlink.com 1.10,2013-07-11 00:22:00,
2013-07-10 20:37:00,78.7,75.0,30.01,ENE,70,0.0,2.0,88,0.00,,,0.00,weatherlink.com 1.10,2013-07-11 00:37:00,
2013-07-10 20:52:00,78.6,75.0,30.02,ENE,70,0.0,1.0,88,0.00,,,0.00,weatherlink.com 1.10,2013-07-11 00:52:00,
2013-07-10 21:07:00,78.5,75.0,30.02,ENE,70,0.0,0.0,89,0.00,,,0.00,weatherlink.com 1.10,2013-07-11 01:07:00,
2013-07-10 21:22:00,78.3,75.0,30.02,ENE,70,0.0,0.0,89,0.00,,,0.00,weatherlink.com 1.10,2013-07-11 01:22:00,
2013-07-10 21:37:00,78.2,75.0,30.03,ENE,70,0.0,0.0,89,0.00,,,0.00,weatherlink.com 1.10,2013-07-11 01:37:00,
2013-07-10 21:52:00,78.1,75.0,30.03,ENE,70,1.0,2.0,89,0.00,,,0.00,weatherlink.com 1.10,2013-07-11 01:52:00,
2013-07-10 22:07:00,78.0,75.0,30.03,ENE,70,0.0,0.0,90,0.00,,,0.00,weatherlink.com 1.10,2013-07-11 02:07:00,
2013-07-10 22:22:00,77.8,75.0,30.03,ENE,70,0.0,0.0,90,0.00,,,0.00,weatherlink.com 1.10,2013-07-11 02:22:00,
2013-07-10 22:37:00,77.7,75.0,30.04,ENE,70,0.0,0.0,90,0.00,,,0.00,weatherlink.com 1.10,2013-07-11 02:37:00,
2013-07-10 22:52:00,77.5,75.0,30.04,ENE,70,0.0,0.0,91,0.00,,,0.00,weatherlink.com 1.10,2013-07-11 02:52:00,
2013-07-10 23:07:00,77.5,75.0,30.04,ENE,70,0.0,2.0,91,0.00,,,0.00,weatherlink.com 1.10,2013-07-11 03:07:00,
2013-07-10 23:22:00,77.5,75.0,30.05,ENE,70,2.0,3.0,91,0.00,,,0.00,weatherlink.com 1.10,2013-07-11 03:22:00,
2013-07-10 23:37:00,77.1,74.0,30.05,ENE,70,2.0,3.0,91,0.00,,,0.00,weatherlink.com 1.10,2013-07-11 03:37:00,
2013-07-10 23:52:00,77.5,75.0,30.05,ENE,70,4.0,6.0,92,0.00,,,0.00,weatherlink.com 1.10,2013-07-11 03:52:00,